Location: Laas
(43.4693°N, 0.3073°E)
Time: 15:36:56
(UTC+00:00)

USA 215 - Pass Details

Date: 25 October 2020
Orbit: 1102 x 1106 km, 123.0° (Epoch: 23 November)

Event Time Altitude Azimuth Distance (km) Brightness Sun altitude
Exits shadow 17:33:02 - 65° (ENE) 3,244 5.1 -6.8°
Reaches altitude 10° 17:33:54 10° 61° (ENE) 2,963 4.9 -6.9°
Maximum altitude 17:39:13 28° 6° (N) 1,950 4.5 -7.9°
Drops below altitude 10° 17:44:33 10° 312° (NW) 2,965 6.1 -8.8°
Sets 17:47:24 0° 301° (WNW) 3,924 7.0 -9.3°
